[[{"header":{"parameterUnit":"m.s-1","parameterCategory":1,"la1":30.2991,"la2":30.254,"lo1":-89.0895,"lo2":-89.0444,"dy":0.0017,"dx":0.0017,"nx":28,"ny":28,"refTime":"2024-07-13T09:00:00:Z","depth":0,"parameterNumber":2,"parameterNumberName":"U-component_of_WINDS"},"data":[0,0,0,0,0,0,0,0,0,0,0,0,0,0,0,0,0,0,0,0,0,0,0,0,0,0,0,0,0,0,0,0,0,0,0,0,0,0,0,0,0,0,0,0,0,0,0,0,0,0,0,0,0,0,0,0,0,0,3.5917,3.5917,0,3.5967,3.5968,3.5968,3.5891,3.5889,3.5886,3.5884,3.5937,3.5941,3.5945,0,0,0,0,0,0,0,0,0,0,0,0,0,3.5755,3.5758,3.5917,3.5917,3.5918,3.5967,3.5968,3.5968,3.5892,3.5889,3.5885,3.5882,3.5936,3.5941,3.5945,0,0,0,0,0,0,0,0,0,0,0,0,0,3.5817,3.5759,3.5917,3.5886,3.5883,3.5967,3.5968,3.5968,3.5893,3.5889,3.5884,3.5881,3.5935,3.594,3.5946,3.6063,0,0,3.5964,3.5967,0,0,0,0,0,0,0,0,3.5814,3.5823,3.589,3.5888,3.5886,3.5919,3.593,3.6,3.5894,3.5889,3.5883,3.5879,3.5935,3.594,3.5959,3.6065,3.6068,3.5965,3.5968,3.5971,3.5972,0,0,0,0,0,0,0,3.581,3.5821,3.5937,3.5891,3.5888,3.5869,3.5874,3.5943,3.5934,3.5889,3.5884,3.5891,3.5933,3.5953,3.5959,3.6068,3.5964,3.597,3.5973,3.5976,3.627,3.6274,0,0,0,0,0,0,3.5809,3.5818,3.5935,3.5938,3.5839,3.5876,3.588,3.5912,3.5933,3.5932,3.5894,3.5887,3.5945,3.5952,3.5961,3.6096,3.5971,3.5976,3.598,3.6266,3.6271,3.6276,0,0,0,0,0,0,3.5806,3.582,3.5933,3.5876,3.5889,3.5883,3.5919,3.5915,3.5935,3.5936,3.5935,3.5916,3.5942,3.5953,3.6037,3.6097,3.5979,3.5984,3.6261,3.6268,3.6274,3.637,0,0,0,0,0,0,3.5801,3.5819,3.5864,3.5878,3.5893,3.6009,3.5923,3.5919,3.5946,3.5937,3.5957,3.5957,3.594,3.6029,3.6043,3.6103,3.5989,3.6255,3.6264,3.6271,3.6361,3.6379,3.6394,0,0,0,0,0,3.5796,3.589,3.5866,3.5881,3.5948,3.6012,3.6021,3.5999,3.5951,3.5995,3.5995,3.5956,3.6089,3.6038,3.6053,3.6116,3.6252,3.6262,3.6271,3.6354,3.6375,3.6393,0,0,0,0,0,0,3.5885,3.5892,3.5865,3.5967,3.5989,3.5999,3.6054,3.6023,3.606,3.605,3.6022,3.6027,3.6117,3.6126,3.6069,3.6229,3.6162,3.6175,3.622,3.624,3.6256,3.6252,3.5994,0,0,0,0,0,3.5916,3.5967,3.5971,3.606,3.6073,3.6062,3.6089,3.607,3.6093,3.6102,3.6108,3.6132,3.6179,3.621,3.6254,3.6362,3.6364,3.6413,3.6429,3.6443,3.6454,3.6509,3.653,3.6308,3.6307,3.6307,0,0,3.5982,3.5992,3.6026,3.6078,3.6093,3.6147,3.607,3.6131,3.617,3.6111,3.619,3.6196,3.6221,3.6317,3.636,3.6327,3.6516,3.6455,3.6466,3.647,3.6521,3.6542,3.6561,3.6314,3.6313,3.6312,0,0,3.6128,3.6141,3.6216,3.6232,3.6255,3.6247,3.6265,3.6279,3.628,3.6359,3.6315,3.6361,3.6443,3.6461,3.6481,3.6632,3.6596,3.6647,3.6731,3.6786,3.6803,3.6818,3.687,3.6889,3.6658,3.6659,3.6659,0,3.6206,3.6285,3.6258,3.6321,3.6344,3.6292,3.6366,3.6384,3.6421,3.6438,3.64,3.6499,3.6512,3.6611,3.6647,3.6666,3.6684,3.6644,3.6803,3.6818,3.6832,3.688,3.69,3.6664,3.6664,3.6663,3.6663,0,3.6379,3.6434,3.6491,3.6525,3.6555,3.6624,3.6608,3.6641,3.6619,3.6615,3.6695,3.6708,3.6752,3.6774,3.6755,3.6869,3.6847,3.6807,3.6739,3.6859,3.6904,3.6923,3.6673,3.6671,3.6669,3.6668,0,0,3.6583,3.66,3.6622,3.6635,3.6656,3.6698,3.6763,3.6804,3.6833,3.686,3.6913,3.6982,3.6943,3.6966,3.6948,3.6996,3.711,3.6948,3.6948,3.6976,3.7235,3.7264,3.7286,3.7087,3.7091,3.7093,3.7232,0,3.6727,3.6838,3.6815,3.6924,3.6973,3.6924,3.698,3.6999,3.6996,3.7037,3.7035,3.7083,3.703,3.7042,3.7088,3.7087,3.7162,3.7077,3.7135,3.7137,3.7128,3.731,3.7341,3.7471,3.725,3.7253,3.7255,0,3.6909,3.694,3.7054,3.7064,3.7083,3.7135,3.7169,3.7209,3.7229,3.7223,3.7248,3.7219,3.7283,3.7215,3.7302,3.7245,3.7267,3.727,3.7275,3.7278,3.7202,3.7316,3.7512,3.7531,3.7283,3.728,3.7278,0,3.7044,3.7115,3.719,3.7204,3.7218,3.7255,3.7263,3.7278,3.7303,3.7334,3.7349,3.7388,3.7409,3.7439,3.7421,3.7374,3.751,3.7442,3.7506,3.7507,3.7536,3.7534,3.7737,3.7555,3.7554,3.7554,3.7553,0,3.7205,3.7276,3.725,3.7297,3.7374,3.7347,3.7425,3.7427,3.744,3.7486,3.7446,3.749,3.7465,3.7507,3.7494,3.7566,3.7577,3.7573,3.7568,3.7575,3.7575,3.7588,3.7578,3.7559,3.7558,3.7557,3.7556,0,3.7369,3.7355,3.7433,3.7439,3.7442,3.7499,3.7504,3.7547,3.754,3.7599,3.7611,3.7601,3.7648,3.7633,3.7685,3.7675,3.7766,3.7751,3.7759,3.7755,3.7819,3.7812,3.8036,3.8063,3.7865,3.7867,3.7869,0,3.7472,3.7525,3.7535,3.7562,3.7572,3.7617,3.7641,3.7616,3.7644,3.7668,3.7708,3.7751,3.7784,3.7861,3.7858,3.7896,3.7881,3.7956,3.7886,3.789,3.7879,3.7875,3.7879,3.797,3.7972,3.7974,3.7975,0,3.7656,3.7645,3.7682,3.7716,3.7746,3.7772,3.7794,3.7818,3.7794,3.7827,3.7873,3.7899,3.7949,3.7992,3.8026,3.8033,3.8,3.7998,3.8014,3.8021,3.8022,3.8019,3.7795,3.7992,3.7991,3.7989,3.7988,3.7988,3.779,3.7834,3.7847,3.7888,3.7902,3.7923,3.7962,3.796,3.7997,3.8035,3.8019,3.8071,3.8087,3.8129,3.8141,3.8182,3.8153,3.8178,3.8183,3.8189,3.8196,3.8017,3.8189,3.8188,3.8188,3.8187,3.8187,0,3.797,3.7975,3.8013,3.8044,3.8076,3.8041,3.8063,3.8092,3.8139,3.8156,3.8188,3.824,3.828,3.828,3.8317,3.8349,3.8335,3.836,3.8356,3.8358,3.8222,3.8202,3.8371,3.8371,3.8371,3.8371,3.8371,3.8371,3.8067,3.8137,3.8128,3.8204,3.8209,3.8259,3.8274,3.8292,3.8305,3.8364,3.8397,3.8396,3.8406,3.8443,3.8477,3.8476,3.8491,3.8521,3.8514,3.8386,3.8368,3.8351,3.8332,3.8525,3.8525,3.8647,3.8648,3.8649]},{"header":{"parameterUnit":"m.s-1","parameterCategory":1,"la1":30.2991,"la2":30.254,"lo1":-89.0895,"lo2":-89.0444,"dy":0.0017,"dx":0.0017,"nx":28,"ny":28,"refTime":"2024-07-13T09:00:00:Z","depth":0,"parameterNumber":3,"parameterNumberName":"V-component_of_WINDS"},"data":[0,0,0,0,0,0,0,0,0,0,0,0,0,0,0,0,0,0,0,0,0,0,0,0,0,0,0,0,0,0,0,0,0,0,0,0,0,0,0,0,0,0,0,0,0,0,0,0,0,0,0,0,0,0,0,0,0,0,0.9544,0.9545,0,0.9573,0.9574,0.9574,0.958,0.958,0.9579,0.9579,0.9608,0.9609,0.9609,0,0,0,0,0,0,0,0,0,0,0,0,0,0.9491,0.9492,0.9544,0.9545,0.9545,0.9573,0.9574,0.9574,0.958,0.958,0.9579,0.9579,0.9607,0.9608,0.961,0,0,0,0,0,0,0,0,0,0,0,0,0,0.9517,0.9493,0.9544,0.9551,0.9552,0.9573,0.9574,0.9574,0.958,0.958,0.9579,0.9579,0.9607,0.9608,0.961,0.9625,0,0,0.9614,0.9615,0,0,0,0,0,0,0,0,0.9515,0.9519,0.955,0.9551,0.9552,0.9573,0.9566,0.9591,0.958,0.9569,0.9579,0.9579,0.9596,0.9598,0.9605,0.9627,0.9628,0.9614,0.9615,0.9616,0.9616,0,0,0,0,0,0,0,0.9514,0.9517,0.9556,0.955,0.9552,0.9552,0.9556,0.957,0.9584,0.957,0.9571,0.9574,0.9597,0.9603,0.9605,0.9628,0.9614,0.9616,0.9616,0.9617,0.9663,0.9664,0,0,0,0,0,0,0.9511,0.9516,0.9555,0.9557,0.9532,0.9554,0.9557,0.9566,0.9584,0.9587,0.9574,0.9574,0.9601,0.9604,0.9606,0.9625,0.9616,0.9617,0.9618,0.9663,0.9663,0.9664,0,0,0,0,0,0,0.951,0.9514,0.9554,0.9536,0.9542,0.9555,0.9565,0.9567,0.9574,0.9587,0.959,0.9579,0.9601,0.9604,0.962,0.9626,0.9618,0.9619,0.9663,0.9663,0.9664,0.9663,0,0,0,0,0,0,0.9508,0.9514,0.952,0.9537,0.9542,0.9568,0.9565,0.9568,0.9576,0.9577,0.9592,0.9594,0.9601,0.9618,0.9622,0.9628,0.962,0.9662,0.9663,0.9663,0.9663,0.9664,0.9665,0,0,0,0,0,0.9506,0.9519,0.9521,0.9525,0.9551,0.9568,0.9572,0.9579,0.9577,0.9583,0.9592,0.9594,0.9625,0.962,0.9624,0.9631,0.9662,0.9663,0.9663,0.9662,0.9664,0.9665,0,0,0,0,0,0,0.9503,0.9521,0.9523,0.9542,0.9554,0.9569,0.9578,0.958,0.9592,0.9592,0.9601,0.9604,0.9619,0.9627,0.9621,0.9646,0.9643,0.9645,0.9641,0.9642,0.9643,0.9641,0.9621,0,0,0,0,0,0.9504,0.9517,0.9533,0.9547,0.9553,0.9564,0.9572,0.9577,0.9589,0.9594,0.9604,0.9615,0.9627,0.9635,0.9647,0.9664,0.9667,0.967,0.9671,0.9672,0.9673,0.9682,0.9683,0.9666,0.9666,0.9666,0,0,0.9508,0.9519,0.9527,0.9547,0.9557,0.9569,0.9568,0.9582,0.9591,0.9596,0.9612,0.9619,0.9632,0.9648,0.9656,0.9655,0.9678,0.9673,0.9673,0.9674,0.9683,0.9684,0.9686,0.9667,0.9667,0.9667,0,0,0.952,0.953,0.9543,0.9553,0.9567,0.9575,0.9578,0.9593,0.9598,0.9614,0.9618,0.9628,0.9649,0.9658,0.9665,0.968,0.9682,0.9683,0.9688,0.9696,0.9697,0.9698,0.9703,0.9705,0.9685,0.9685,0.9685,0,0.9522,0.9542,0.955,0.9563,0.9571,0.9576,0.9589,0.9598,0.9615,0.9621,0.9619,0.9645,0.9654,0.9672,0.9676,0.9682,0.9685,0.9682,0.9697,0.9698,0.9699,0.9703,0.9705,0.9685,0.9685,0.9685,0.9685,0,0.9543,0.9556,0.9565,0.9582,0.9591,0.9604,0.9614,0.9622,0.9626,0.9633,0.9648,0.9659,0.9674,0.9678,0.9682,0.9696,0.9695,0.9695,0.9692,0.9701,0.9705,0.9707,0.9685,0.9685,0.9685,0.9685,0,0,0.9555,0.9575,0.9578,0.9586,0.9602,0.9612,0.9624,0.9639,0.9645,0.9657,0.9667,0.9684,0.9684,0.9692,0.9697,0.9704,0.9714,0.9703,0.9703,0.9704,0.973,0.973,0.9731,0.9715,0.9716,0.9716,0.9728,0,0.9568,0.9592,0.9599,0.9619,0.9631,0.9635,0.9646,0.9656,0.9663,0.9673,0.968,0.9692,0.9691,0.9696,0.9704,0.9711,0.9719,0.971,0.9724,0.9725,0.9721,0.9734,0.9734,0.9745,0.973,0.973,0.9731,0,0.9588,0.96,0.9621,0.9634,0.9639,0.9649,0.9662,0.9672,0.9684,0.9688,0.9697,0.9701,0.9713,0.9709,0.9726,0.972,0.9726,0.973,0.9731,0.9733,0.9728,0.9735,0.9749,0.9751,0.9734,0.9733,0.9733,0,0.9594,0.9615,0.963,0.9636,0.9653,0.9659,0.9666,0.9677,0.9685,0.9696,0.9701,0.9713,0.9719,0.9728,0.9735,0.9732,0.9751,0.9748,0.9754,0.9754,0.9758,0.9758,0.9773,0.9762,0.9762,0.9762,0.9762,0,0.9609,0.9621,0.9633,0.9642,0.9656,0.9663,0.9676,0.9683,0.9693,0.9703,0.9707,0.9716,0.9725,0.9734,0.974,0.9752,0.9755,0.9758,0.976,0.9758,0.9758,0.9762,0.9761,0.9763,0.9763,0.9762,0.9762,0,0.9618,0.9626,0.9643,0.9657,0.966,0.967,0.9681,0.969,0.9696,0.9708,0.9712,0.9722,0.9734,0.9741,0.9756,0.9759,0.9773,0.9774,0.9769,0.977,0.9776,0.9775,0.9794,0.9797,0.9784,0.9785,0.9785,0,0.9626,0.9636,0.9651,0.9658,0.9665,0.9677,0.9684,0.9692,0.97,0.9713,0.9719,0.9732,0.9742,0.976,0.9768,0.9779,0.9781,0.9787,0.9782,0.978,0.978,0.978,0.978,0.9787,0.9787,0.9787,0.9787,0,0.9641,0.9645,0.9656,0.9668,0.9678,0.9688,0.9698,0.9703,0.9712,0.9721,0.9733,0.9741,0.9756,0.9768,0.9779,0.9786,0.9788,0.9789,0.9791,0.9789,0.9786,0.9787,0.9771,0.9788,0.9788,0.9788,0.9788,0.9788,0.965,0.9658,0.967,0.9682,0.969,0.97,0.9708,0.9715,0.9726,0.9739,0.9743,0.9755,0.9765,0.9781,0.9788,0.9797,0.9796,0.9799,0.98,0.9801,0.9801,0.9784,0.9799,0.9799,0.9799,0.9799,0.9799,0,0.9664,0.9672,0.9683,0.9697,0.9706,0.9708,0.9719,0.9726,0.9737,0.9747,0.9757,0.977,0.9781,0.979,0.9801,0.9807,0.9808,0.981,0.9809,0.981,0.9801,0.9798,0.9808,0.9808,0.9808,0.9808,0.9808,0.9808,0.9673,0.9687,0.9692,0.971,0.9717,0.973,0.9736,0.9744,0.9751,0.9766,0.9776,0.9781,0.979,0.9802,0.9812,0.9814,0.9818,0.9819,0.9821,0.9812,0.9811,0.981,0.9807,0.982,0.982,0.983,0.983,0.983]}]]